TimeCST,TemperatureF,Dew PointF,Humidity,Sea Level PressureIn,VisibilityMPH,Wind Direction,Wind SpeedMPH,Gust SpeedMPH,PrecipitationIn,Events,Conditions,WindDirDegrees,DateUTC
12:53 AM,12.0,6.1,77,30.43,10.0,SW,8.1,-,N/A,,Clear,220,2012-11-27 06:53:00
1:53 AM,12.0,6.1,77,30.42,10.0,SW,6.9,-,N/A,,Clear,220,2012-11-27 07:53:00
2:53 AM,15.1,8.1,74,30.41,10.0,SW,9.2,-,N/A,,Clear,230,2012-11-27 08:53:00
3:53 AM,15.1,8.1,74,30.39,10.0,SW,11.5,-,N/A,,Clear,230,2012-11-27 09:53:00
4:53 AM,16.0,9.0,74,30.37,10.0,SSW,10.4,-,N/A,,Clear,210,2012-11-27 10:53:00
5:53 AM,16.0,10.0,77,30.37,10.0,SSW,6.9,-,N/A,,Clear,200,2012-11-27 11:53:00
6:53 AM,16.0,9.0,74,30.35,10.0,South,6.9,-,N/A,,Clear,190,2012-11-27 12:53:00
7:53 AM,19.0,12.9,77,30.33,10.0,South,6.9,-,N/A,,Clear,180,2012-11-27 13:53:00
8:53 AM,21.9,16.0,78,30.32,10.0,SSW,15.0,-,N/A,,Clear,200,2012-11-27 14:53:00
9:53 AM,26.1,19.0,75,30.30,10.0,SSW,11.5,-,N/A,,Scattered Clouds,200,2012-11-27 15:53:00
10:53 AM,30.9,21.0,67,30.28,10.0,SW,17.3,25.3,N/A,,Clear,220,2012-11-27 16:53:00
11:53 AM,35.1,23.0,61,30.22,10.0,SSW,16.1,26.5,N/A,,Clear,210,2012-11-27 17:53:00
12:53 PM,37.0,23.0,57,30.18,10.0,SSW,18.4,25.3,N/A,,Clear,210,2012-11-27 18:53:00
1:53 PM,39.0,23.0,53,30.17,10.0,WSW,23.0,-,N/A,,Scattered Clouds,240,2012-11-27 19:53:00
2:53 PM,37.9,23.0,55,30.16,10.0,SW,18.4,-,N/A,,Mostly Cloudy,230,2012-11-27 20:53:00
3:53 PM,37.0,24.1,59,30.18,10.0,SW,15.0,-,N/A,,Clear,230,2012-11-27 21:53:00
4:53 PM,30.9,21.0,67,30.19,10.0,West,5.8,-,N/A,,Clear,270,2012-11-27 22:53:00
5:53 PM,24.1,18.0,77,30.23,10.0,WNW,9.2,-,N/A,,Clear,290,2012-11-27 23:53:00
6:53 PM,24.1,17.1,75,30.25,10.0,West,4.6,-,N/A,,Clear,260,2012-11-28 00:53:00
7:53 PM,19.9,16.0,85,30.27,10.0,West,8.1,-,N/A,,Clear,280,2012-11-28 01:53:00
8:53 PM,21.9,17.1,82,30.29,10.0,Calm,Calm,-,N/A,,Clear,0,2012-11-28 02:53:00
9:53 PM,19.0,16.0,88,30.30,10.0,WNW,4.6,-,N/A,,Clear,300,2012-11-28 03:53:00
10:53 PM,16.0,12.9,88,30.31,10.0,WNW,5.8,-,N/A,,Clear,300,2012-11-28 04:53:00